SURCAL 5

operational
NORAD ID: 1577 Int'l Des: 1965-065 Owner: NRL Country: US
LEOCIRCULARRETROGRADE

About SURCAL 5

Description loading...

Live Position

Loading 3D Globe...

Upcoming Passes

Altitude History

Altitude vs Time

uPlot chart will show altitude changes over time

Two-Line Element Set

1 01577U 65065J 26014.98391443 .00000104 00000-0 18138-3 0 9995
2 01577 90.0174 211.6697 0070137 174.5795 308.7269 13.36225957942194
Epoch: Jan 14, 2026 • Age: 13 hours

Current Status

Altitude 1135.0 km
Velocity 7.29 km/s
Sub-Earth Point -68.00°S, 84.46°E
Type other

Large Constellations

Loading constellations...